Angoon, AK

5:17 PM AKST on December 13, 2019 (GMT -0900)
Angoon

Weather History for PAGN - May, 2019

Change the Weather History Date:

Saturday, May 4, 2019

  Actual Average (PASI) Record (PASI)
Temperature  
Mean Temperature 46 °F -  
Max Temperature 48 °F 50 °F 69 °F (1956)
Min Temperature 43 °F 38 °F 30 °F (2002)
Degree Days  
Heating Degree Days 20    
Moisture  
Dew Point 39 °F    
Average Humidity 80    
Maximum Humidity 93    
Minimum Humidity 61    
Precipitation  
Precipitation 0.06 in - - ()
Sea Level Pressure  
Sea Level Pressure 30.07 in    
Wind  
Wind Speed 1 mph (NNE)    
Max Wind Speed 5 mph    
Max Gust Speed -    
Visibility 10 miles    
Events Rain    
Averages and records for this station are not official NWS values.
T = Trace of Precipitation, MM = Missing Value Source: NWS Daily Summary

Daily Weather History Graph

Daily Weather History Graph

Search for Another Location

Airport or City:

Astronomy

May. 04, 2019 Rise Set
Actual Time 5:01 AM AKDT 8:50 PM AKDT
Civil Twilight 4:12 AM AKDT 9:39 PM AKDT
Nautical Twilight 3:01 AM AKDT 10:51 PM AKDT
Astronomical Twilight 1:27 AM AKDT 12:22 AM AKDT
Moon 5:39 AM AKDT (5/4) 8:34 PM AKDT (5/4)
Length of Visible Light 17h 27m
Length of Day
15h 49m
Waning Crescent, 0% of the Moon is Illuminated
May 4
Waning Crescent
May 4
New
May 11
First Quarter
May 18
Full
May 26
Last Quarter

Hourly Weather History & Observations

Time (AKDT) Temp. Windchill Dew Point Humidity Pressure Visibility Wind Dir Wind Speed Gust Speed Precip Events Conditions
12:56 AM 46.0 °F - 39.9 °F 79% 30.10 in 10.0 mi Calm Calm - N/A   Partly Cloudy
1:56 AM 46.0 °F - 36.0 °F 68% 30.10 in 10.0 mi Calm Calm - N/A   Clear
2:56 AM 44.1 °F - 36.0 °F 73% 30.10 in 10.0 mi Calm Calm - N/A   Partly Cloudy
3:56 AM 44.1 °F - 35.1 °F 71% 30.11 in 10.0 mi Calm Calm - N/A   Clear
4:56 AM 43.0 °F - 35.1 °F 74% 30.12 in 10.0 mi Calm Calm - N/A   Mostly Cloudy
5:56 AM 43.0 °F - 37.0 °F 80% 30.11 in 10.0 mi Calm Calm - N/A   Mostly Cloudy
6:56 AM 43.0 °F 41.3 °F 36.0 °F 76% 30.12 in 10.0 mi East 3.5 mph - N/A   Overcast
7:56 AM 45.0 °F 42.6 °F 37.0 °F 74% 30.12 in 10.0 mi NNW 4.6 mph - N/A   Overcast
8:56 AM 46.0 °F - 35.1 °F 66% 30.11 in 10.0 mi Calm Calm - N/A   Overcast
9:56 AM 46.0 °F 43.9 °F 37.0 °F 71% 30.11 in 10.0 mi North 4.6 mph - N/A   Overcast
10:56 AM 46.0 °F 44.8 °F 37.0 °F 71% 30.10 in 10.0 mi NNW 3.5 mph - N/A   Overcast
11:56 AM 46.0 °F - 37.0 °F 71% 30.10 in 10.0 mi Calm Calm - 0.00 in Rain Light Rain
12:56 PM 46.9 °F - 36.0 °F 66% 30.09 in 10.0 mi Calm Calm - 0.00 in   Overcast
1:56 PM 48.0 °F - 35.1 °F 61% 30.09 in 10.0 mi SSW 4.6 mph - 0.00 in   Overcast
2:56 PM 48.0 °F - 37.9 °F 68% 30.07 in 10.0 mi Variable 4.6 mph - 0.00 in   Overcast
3:56 PM 46.9 °F - 39.0 °F 74% 30.06 in 10.0 mi Variable 3.5 mph - 0.00 in   Overcast
4:56 PM 46.9 °F - 41.0 °F 80% 30.05 in 10.0 mi Calm Calm - 0.00 in Rain Light Rain
5:56 PM 46.0 °F - 42.1 °F 86% 30.04 in 10.0 mi Calm Calm - 0.01 in Rain Light Rain
6:56 PM 45.0 °F - 42.1 °F 90% 30.03 in 10.0 mi Calm Calm - 0.01 in Rain Light Rain
7:33 PM 44.6 °F - 42.8 °F 93% 30.05 in 9.0 mi Calm Calm - 0.02 in Rain Light Rain
7:56 PM 45.0 °F - 43.0 °F 93% 30.01 in 7.0 mi Calm Calm - 0.03 in Rain Light Rain
8:03 PM 44.6 °F - 42.8 °F 93% 30.04 in 7.0 mi Calm Calm - 0.00 in Rain Light Rain
8:15 PM 44.6 °F - 42.8 °F 93% 30.04 in 7.0 mi Calm Calm - 0.00 in Rain Light Rain
8:26 PM 44.6 °F 43.1 °F 42.8 °F 93% 30.04 in 10.0 mi ENE 3.5 mph - 0.00 in Rain Light Rain
8:56 PM 44.1 °F - 42.1 °F 93% 30.01 in 10.0 mi Calm Calm - 0.00 in   Overcast
9:56 PM 44.1 °F - 42.1 °F 93% 29.99 in 10.0 mi Calm Calm - 0.01 in   Overcast
10:56 PM 44.1 °F - 42.1 °F 93% 29.98 in 10.0 mi Calm Calm - N/A   Overcast
11:56 PM 44.1 °F - 41.0 °F 89% 29.98 in 10.0 mi Calm Calm - N/A   Overcast